724  
ASUS43 KIWX 201710  
RWRIWX  
 
KIWX WEATHER ROUNDUP  
NATIONAL WEATHER SERVICE NORTHERN INDIANA  
100 PM EDT SUN MAY 20 2018  
 
NOTE: "FAIR" INDICATES FEW OR NO CLOUDS BELOW 12,000 FEET WITH NO  
SIGNIFICANT WEATHER AND/OR S TO VISIBILITY
.  
 
* THESE STATIONS ARE NOT UNDER NWS QUALITY CONTROL. THEY ALSO MAY NOT  
REPORT WEATHER SUCH AS PRECIPITATION OR FOG.
 
 
INZ001>027-201800-  
NORTHERN INDIANA  
 
CITY SKY/WX TMP DP RH WIND PRES REMARKS
 
GARY* CLOUDY 45 45 100 N10 30.23S  
VALPARAISO CLOUDY 50 46 86 NW10 30.20R  
LAPORTE* CLOUDY 53 51 93 NW9 30.19R  
KNOX* CLOUDY 55 54 94 N8 30.17S  
SOUTH BEND RAIN 57 56 96 N7 30.18S FOG  
ELKHART* CLOUDY 63 55 77 N6 30.18R  
GOSHEN LGT RAIN 62 58 86 MISG 30.15F FOG  
ROCHESTER* CLOUDY 70 59 68 CALM 30.16R  
WARSAW* CLOUDY 64 59 82 NE3 30.15S  
AUBURN* CLOUDY 64 59 82 CALM 30.16F  
FORT WAYNE CLOUDY 68 61 78 VRB3 30.15S  
PERU/GRISSOM CLOUDY 67 66 96 CALM 30.14S  
MARION* PTSUNNY 67 61 78 CALM 30.16R  
 

 
INZ028>050-201800-  
CENTRAL INDIANA  
 
CITY SKY/WX TMP DP RH WIND PRES REMARKS
 
LAFAYETTE FAIR 69 63 81 NE10 30.08F  
KOKOMO* PTSUNNY 68 62 81 CALM 30.16S  
MUNCIE* FAIR 74 63 68 CALM 30.14R  
INDIANAPOLIS PTSUNNY 79 65 62 VRB3 30.10F  
 

 
MIZ043>046-050>051-056>058-064>065-071>073-077>080-201800-  
SOUTHWEST LOWER MICHIGAN  
 
CITY SKY/WX TMP DP RH WIND PRES REMARKS
 
BATTLE CREEK CLOUDY 59 54 83 NE7 30.19R  
BENTON HARBOR CLOUDY 51 48 89 VRB6 30.20R  
COLDWATER* CLOUDY 62 56 82 N7 30.16F  
HILLSDALE* CLOUDY 63 55 77 N3 30.17S  
HOLLAND LGT RAIN 55 49 80 NW5 30.21R  
GRAND RAPIDS CLOUDY 56 49 77 E6 30.20S  
KALAMAZOO PTSUNNY 63 54 72 E3 30.17S  
STURGIS* DRIZZLE 61 56 83 NE3 30.16S  
THREE RIVERS* LGT RAIN 61 56 82 CALM 30.17F  
 

 
OHZ001>008-015>018-024>025-201800-  
NORTHWEST OHIO  
 
CITY SKY/WX TMP DP RH WIND PRES REMARKS
 
DEFIANCE CLOUDY 68 60 75 NE8 30.15S  
FINDLAY CLOUDY 69 59 70 NE6 30.14R  
TOLEDO EXPRESS CLOUDY 66 60 81 NE6 30.16R  
TOLEDO METCALF CLOUDY 63 57 81 E7 30.17R  
LIMA FAIR 69 59 70 CALM 30.14S  
 

 
AND FOR LAKE MICHIGAN COASTAL AND OPEN LAKE BUOY OBSERVATIONS  
 
STATION/POSITION TEMP WIND PRES VSBY WAVE
 
AIR SEA DIR/SP/G HT/PER  
(F) (DEG/KT/KT) (MB) (MI) (FT/S)  
CALUMET HARBOR 44 340/ 14/ 20 1023.1R  
BURNS HARBOR 44 350/ 14/ 17 1023.7R  
SAINT JOSEPH 49 20/ 8/ 13 1023.7  
4 MI NW BRIDGMAN 49 53 230/ 14/ 16 1023.1 3/ 6  
MICHIGAN CITY 44 52 10/ 14/ 17 N/A 4/ 6  
 

 

 
 
 
CLICK HERE TO GO TO PREVIOUS BULLETINS.

The Nexlab IN Page
The Nexlab OH Page
The Nexlab MI Page Main Text Page